Location: Newark
(54.6833°N, 25.2833°E)
Time: 04:51:41
(UTC+00:00)

SR - All Passes

Search period start: 17 November 2019 00:00
Search period end: 27 November 2019 00:00
Orbit: 574 x 882 km, 66.7° (Epoch: 16 November)

Date Brightness Start Highest point End Pass type
(mag) Time Alt. Az. Time Alt. Az. Time Alt. Az.
17 Nov - 12:11:57 10° SE 12:14:32 14° ESE 12:17:12 10° ENE daylight
17 Nov - 13:50:09 10° SSW 13:55:28 60° ESE 14:01:12 10° NE daylight
17 Nov - 15:32:31 10° WSW 15:37:52 45° NNW 15:43:33 10° NE visible
17 Nov - 17:16:34 10° WNW 17:21:22 26° N 17:26:20 10° NE visible
17 Nov - 19:00:05 10° NW 19:05:12 29° NNE 19:10:22 10° ENE visible
17 Nov - 20:42:31 10° NW 20:48:26 61° NE 20:54:16 10° ESE visible
17 Nov - 22:24:56 10° NW 22:30:28 41° WSW 22:35:52 10° S night (unlit)
18 Nov - 13:01:06 10° S 13:06:02 37° ESE 13:11:17 10° NE daylight
18 Nov - 14:42:27 10° WSW 14:47:56 63° NW 14:53:48 10° NE visible
18 Nov - 16:26:10 10° WNW 16:31:08 29° NNW 16:36:18 10° NE visible
18 Nov - 18:10:05 10° NW 18:14:58 26° N 18:19:55 10° ENE visible
18 Nov - 19:52:49 10° NW 19:58:29 44° NNE 20:04:08 10° ESE visible
18 Nov - 21:35:04 10° NW 21:40:59 65° SW 21:46:44 10° SSE visible
18 Nov - 23:18:38 10° WNW 23:22:05 16° WSW 23:25:29 10° SW night (unlit)
19 Nov - 12:12:38 10° SSE 12:16:45 22° ESE 12:21:05 10° ENE daylight
19 Nov - 13:52:40 10° SW 13:58:10 89° SE 14:04:04 10° NE daylight
19 Nov - 15:35:48 10° W 15:40:59 36° NNW 15:46:25 10° NE visible
19 Nov - 17:19:54 10° NW 17:24:41 25° N 17:29:35 10° NE visible
19 Nov - 19:03:01 10° NW 19:08:25 35° NNE 19:13:48 10° E visible
19 Nov - 20:45:19 10° NW 20:51:19 85° NE 20:57:11 10° SE visible
19 Nov - 22:28:04 10° WNW 22:32:55 27° WSW 22:37:40 10° SSW night (unlit)
20 Nov - 11:25:17 10° SE 11:27:40 13° ESE 11:30:07 10° ENE daylight
20 Nov - 13:03:14 10° SSW 13:08:33 58° ESE 13:14:16 10° NE daylight
20 Nov - 14:45:32 10° WSW 14:50:55 46° NNW 14:56:37 10° NE visible
20 Nov - 16:29:34 10° WNW 16:34:24 27° N 16:39:23 10° NE visible
20 Nov - 18:13:08 10° NW 18:18:14 29° NNE 18:23:22 10° ENE visible
20 Nov - 19:55:36 10° NW 20:01:30 59° NE 20:07:18 10° ESE visible
20 Nov - 21:38:00 10° NW 21:43:34 43° WSW 21:49:00 10° S night (unlit)
21 Nov - 12:14:13 10° S 12:19:07 35° ESE 12:24:20 10° NE daylight
21 Nov - 13:55:29 10° SW 14:01:00 65° NW 14:06:53 10° NE daylight
21 Nov - 15:39:09 10° WNW 15:44:10 30° NNW 15:49:22 10° NE visible
21 Nov - 17:23:06 10° NW 17:27:59 26° N 17:32:56 10° ENE visible
21 Nov - 19:05:52 10° NW 19:11:32 43° NNE 19:17:09 10° ESE visible
21 Nov - 20:48:08 10° NW 20:54:04 68° SW 20:59:50 10° SSE visible
21 Nov - 22:31:36 10° WNW 22:35:13 17° WSW 22:38:46 10° SW night (unlit)
22 Nov - 11:25:49 10° SSE 11:29:52 22° ESE 11:34:07 10° ENE daylight
22 Nov - 13:05:43 10° SW 13:11:14 86° SE 13:17:09 10° NE daylight
22 Nov - 14:48:47 10° W 14:54:01 36° NNW 14:59:28 10° NE visible
22 Nov - 16:32:54 10° WNW 16:37:42 25° N 16:42:36 10° NE visible
22 Nov - 18:16:05 10° NW 18:21:27 34° NNE 18:26:49 10° E visible
22 Nov - 19:58:23 10° NW 20:04:23 82° NE 20:10:15 10° SE visible
22 Nov - 21:41:05 10° NW 21:46:01 28° WSW 21:50:51 10° SSW night (unlit)
23 Nov - 10:38:37 10° SE 10:40:47 12° E 10:43:00 10° ENE daylight
23 Nov - 12:16:19 10° SSW 12:21:38 55° ESE 12:27:21 10° NE daylight
23 Nov - 13:58:32 10° WSW 14:03:58 48° NW 14:09:43 10° NE daylight
23 Nov - 15:42:34 10° WNW 15:47:25 27° N 15:52:25 10° NE visible
23 Nov - 17:26:10 10° NW 17:31:16 29° NNE 17:36:22 10° ENE visible
23 Nov - 19:08:40 10° NW 19:14:34 57° NE 19:20:20 10° ESE visible
23 Nov - 20:51:03 10° NW 20:56:40 45° WSW 21:02:08 10° S visible
24 Nov - 11:27:21 10° S 11:32:13 34° ESE 11:37:24 10° NE daylight
24 Nov - 13:08:31 10° SW 13:14:03 67° NW 13:19:58 10° NE daylight
24 Nov - 14:52:08 10° W 14:57:11 30° NNW 15:02:25 10° NE visible
24 Nov - 16:36:07 10° NW 16:41:00 26° N 16:45:57 10° ENE visible
24 Nov - 18:18:56 10° NW 18:24:35 42° NNE 18:30:10 10° ESE visible
24 Nov - 20:01:12 10° NW 20:07:09 70° SW 20:12:55 10° SSE visible
24 Nov - 21:44:34 10° WNW 21:48:20 18° WSW 21:52:02 10° SW night (unlit)
25 Nov - 10:39:00 10° SSE 10:42:59 21° ESE 10:47:09 10° ENE daylight
25 Nov - 12:18:46 10° SW 12:24:18 83° SE 12:30:14 10° NE daylight
25 Nov - 14:01:46 10° W 14:07:03 37° NNW 14:12:33 10° NE daylight
25 Nov - 15:45:54 10° WNW 15:50:43 26° N 15:55:38 10° NE visible
25 Nov - 17:29:08 10° NW 17:34:29 33° NNE 17:39:49 10° E visible
25 Nov - 19:11:27 10° NW 19:17:28 79° NE 19:23:18 10° SE visible
25 Nov - 20:54:07 10° NW 20:59:08 29° WSW 21:04:00 10° S visible
26 Nov - 09:52:01 10° ESE 09:53:55 12° E 09:55:51 10° E daylight
26 Nov - 11:29:23 10° SSW 11:34:44 53° ESE 11:40:25 10° NE daylight
26 Nov - 13:11:33 10° WSW 13:17:01 49° NW 13:22:47 10° NE daylight
26 Nov - 14:55:33 10° WNW 15:00:27 27° N 15:05:28 10° NE visible
26 Nov - 16:39:13 10° NW 16:44:18 28° NNE 16:49:23 10° ENE visible
26 Nov - 18:21:45 10° NW 18:27:36 56° NE 18:33:22 10° ESE visible
26 Nov - 20:04:06 10° NW 20:09:46 46° WSW 20:15:15 10° S visible
26 Nov - 21:49:55 10° W 21:50:30 10° W 21:51:04 10° WSW night (unlit)
